When you browse on this site, cookies collect data to enhance your experience and personalize the content and advertising you see.
Visit our Privacy Policy to learn more. By continuing to use the site, you agree to this use of cookies and data.
  • în România
  • Lista ţărilor
  • Pe 7 zile
  • Temperatura apei
  • Hartă satelitară
  • Meteo pe hartă
  • Widget-uri
  • user-avatar
    Intrare

    Meteo pe oră la Sharlotte

    Astăzi, 20 Aprilie, Sâmbătă

    Timp Temperatura Precipitaţii Vânt Presiune Umiditate
    00:00 +10°C° 0 mm 6 m/s 732 mmHg 82%
    01:00 +9°C° 0 mm 6 m/s 733 mmHg 81%
    02:00 +8°C° 0 mm 6 m/s 733 mmHg 80%
    03:00 +8°C° 0 mm 6 m/s 733 mmHg 78%
    04:00 +7°C° 0 mm 6 m/s 733 mmHg 76%
    05:00 +7°C° 0 mm 6 m/s 733 mmHg 75%
    06:00 +7°C° 0 mm 6 m/s 733 mmHg 74%
    07:00 +7°C° 0 mm 6 m/s 734 mmHg 73%
    08:00 +8°C° 0 mm 6 m/s 734 mmHg 68%
    09:00 +9°C° 0 mm 6 m/s 735 mmHg 63%
    10:00 +10°C° 0 mm 6 m/s 735 mmHg 59%
    11:00 +10°C° 0 mm 6 m/s 735 mmHg 58%
    12:00 +11°C° 0 mm 6 m/s 735 mmHg 58%
    13:00 +11°C° 0 mm 6 m/s 735 mmHg 58%
    14:00 +12°C° 0.1 mm 5 m/s 735 mmHg 59%
    15:00 +12°C° 0.1 mm 5 m/s 735 mmHg 60%
    16:00 +13°C° 0.1 mm 5 m/s 736 mmHg 61%
    17:00 +12°C° 0.1 mm 5 m/s 736 mmHg 65%
    18:00 +10°C° 0.1 mm 5 m/s 736 mmHg 70%
    19:00 +9°C° 0.1 mm 5 m/s 737 mmHg 75%
    20:00 +8°C° 0 mm 5 m/s 737 mmHg 75%
    21:00 +8°C° 0 mm 4 m/s 738 mmHg 76%
    22:00 +7°C° 0 mm 4 m/s 738 mmHg 76%
    23:00 +7°C° 0 mm 3 m/s 738 mmHg 78%

    Mâine, 21 Aprilie, Duminică

    Timp Temperatura Precipitaţii Vânt Presiune Umiditate
    00:00 +7°C° 0 mm 3 m/s 738 mmHg 79%
    01:00 +6°C° 0 mm 2 m/s 738 mmHg 81%
    02:00 +6°C° 0 mm 2 m/s 738 mmHg 81%
    03:00 +7°C° 0 mm 2 m/s 739 mmHg 80%
    04:00 +7°C° 0 mm 2 m/s 739 mmHg 79%
    05:00 +7°C° 0 mm 2 m/s 739 mmHg 78%
    06:00 +7°C° 0 mm 2 m/s 740 mmHg 76%
    07:00 +8°C° 0 mm 2 m/s 740 mmHg 75%
    08:00 +10°C° 0 mm 2 m/s 741 mmHg 66%
    09:00 +14°C° 0 mm 2 m/s 741 mmHg 57%
    10:00 +16°C° 0 mm 2 m/s 742 mmHg 48%
    11:00 +17°C° 0 mm 2 m/s 742 mmHg 48%
    12:00 +17°C° 0 mm 2 m/s 742 mmHg 47%
    13:00 +18°C° 0 mm 2 m/s 742 mmHg 47%
    14:00 +18°C° 0 mm 2 m/s 742 mmHg 46%
    15:00 +19°C° 0 mm 2 m/s 742 mmHg 46%
    16:00 +19°C° 0 mm 2 m/s 742 mmHg 46%
    17:00 +18°C° 0 mm 2 m/s 742 mmHg 50%
    18:00 +18°C° 0 mm 1 m/s 743 mmHg 55%
    19:00 +16°C° 0 mm 1 m/s 743 mmHg 59%
    20:00 +15°C° 0 mm 1 m/s 744 mmHg 62%
    21:00 +14°C° 0 mm 1 m/s 745 mmHg 65%
    22:00 +13°C° 0 mm 1 m/s 745 mmHg 68%
    23:00 +12°C° 0 mm 1 m/s 745 mmHg 69%

    Poimâine, 22 Aprilie, Luni

    Timp Temperatura Precipitaţii Vânt Presiune Umiditate
    00:00 +11°C° 0 mm 0 m/s 745 mmHg 70%
    01:00 +11°C° 0 mm 0 m/s 745 mmHg 71%
    02:00 +10°C° 0 mm 0 m/s 745 mmHg 72%
    03:00 +11°C° 0 mm 1 m/s 745 mmHg 74%
    04:00 +11°C° 0 mm 1 m/s 745 mmHg 76%
    05:00 +11°C° 0 mm 1 m/s 746 mmHg 75%
    06:00 +11°C° 0 mm 0 m/s 746 mmHg 74%
    07:00 +12°C° 0 mm 0 m/s 746 mmHg 72%
    08:00 +15°C° 0 mm 0 m/s 747 mmHg 64%
    09:00 +17°C° 0 mm 0 m/s 747 mmHg 56%
    10:00 +20°C° 0 mm 0 m/s 747 mmHg 48%
    11:00 +24°C° 0 mm 1 m/s 747 mmHg 44%
    12:00 +25°C° 0 mm 1 m/s 747 mmHg 40%
    13:00 +26°C° 0 mm 1 m/s 746 mmHg 36%
    14:00 +26°C° 0 mm 1 m/s 746 mmHg 37%
    15:00 +27°C° 0 mm 1 m/s 746 mmHg 37%
    16:00 +27°C° 0 mm 1 m/s 745 mmHg 38%
    17:00 +25°C° 0 mm 1 m/s 745 mmHg 43%
    18:00 +23°C° 0 mm 1 m/s 746 mmHg 49%
    19:00 +21°C° 0 mm 1 m/s 746 mmHg 54%
    20:00 +21°C° 0 mm 1 m/s 746 mmHg 56%
    21:00 +20°C° 0 mm 1 m/s 747 mmHg 59%
    22:00 +19°C° 0 mm 1 m/s 747 mmHg 61%
    23:00 +18°C° 0 mm 1 m/s 747 mmHg 64%

    23 Aprilie, Marţi

    Timp Temperatura Precipitaţii Vânt Presiune Umiditate
    00:00 +15°C° 0 mm 0 m/s 747 mmHg 67%
    01:00 +15°C° 0 mm 0 m/s 747 mmHg 70%
    02:00 +14°C° 0 mm 0 m/s 747 mmHg 72%
    03:00 +14°C° 0 mm 0 m/s 746 mmHg 74%
    04:00 +14°C° 0 mm 0 m/s 746 mmHg 75%
    05:00 +14°C° 0 mm 0 m/s 747 mmHg 74%
    06:00 +15°C° 0 mm 0 m/s 747 mmHg 73%
    07:00 +16°C° 0 mm 0 m/s 747 mmHg 72%
    08:00 +18°C° 0 mm 0 m/s 747 mmHg 65%
    09:00 +21°C° 0 mm 0 m/s 748 mmHg 57%
    10:00 +24°C° 0 mm 0 m/s 748 mmHg 49%
    11:00 +27°C° 0 mm 1 m/s 747 mmHg 46%
    12:00 +28°C° 0 mm 1 m/s 747 mmHg 42%
    13:00 +29°C° 0 mm 1 m/s 746 mmHg 39%
    14:00 +30°C° 0 mm 2 m/s 746 mmHg 39%
    15:00 +30°C° 0 mm 2 m/s 745 mmHg 39%
    16:00 +30°C° 0 mm 2 m/s 745 mmHg 39%
    17:00 +28°C° 0 mm 2 m/s 745 mmHg 45%
    18:00 +26°C° 0 mm 2 m/s 745 mmHg 51%
    19:00 +25°C° 0 mm 1 m/s 745 mmHg 57%
    20:00 +24°C° 0 mm 1 m/s 745 mmHg 60%
    21:00 +23°C° 0 mm 1 m/s 745 mmHg 63%
    22:00 +22°C° 0 mm 1 m/s 745 mmHg 66%
    23:00 +20°C° 0 mm 2 m/s 745 mmHg 68%

    24 Aprilie, Miercuri

    Timp Temperatura Precipitaţii Vânt Presiune Umiditate
    00:00 +20°C° 0 mm 2 m/s 745 mmHg 70%
    01:00 +19°C° 0 mm 2 m/s 744 mmHg 72%
    02:00 +19°C° 0 mm 2 m/s 744 mmHg 75%
    03:00 +18°C° 0 mm 2 m/s 744 mmHg 77%
    04:00 +18°C° 0 mm 2 m/s 744 mmHg 79%
    05:00 +18°C° 0 mm 2 m/s 744 mmHg 79%
    06:00 +18°C° 0 mm 2 m/s 744 mmHg 79%
    07:00 +18°C° 0 mm 2 m/s 744 mmHg 78%
    08:00 +20°C° 0 mm 2 m/s 744 mmHg 72%
    09:00 +23°C° 0 mm 2 m/s 744 mmHg 66%
    10:00 +25°C° 0 mm 2 m/s 744 mmHg 59%
    11:00 +27°C° 0 mm 3 m/s 744 mmHg 53%
    12:00 +29°C° 0 mm 3 m/s 743 mmHg 46%
    13:00 +30°C° 0 mm 4 m/s 743 mmHg 39%
    14:00 +30°C° 0 mm 4 m/s 742 mmHg 39%
    15:00 +30°C° 0 mm 4 m/s 742 mmHg 39%
    16:00 +30°C° 0 mm 5 m/s 741 mmHg 38%
    17:00 +29°C° 0 mm 4 m/s 741 mmHg 44%
    18:00 +27°C° 0 mm 4 m/s 741 mmHg 50%
    19:00 +25°C° 0 mm 4 m/s 741 mmHg 56%
    20:00 +23°C° 0 mm 4 m/s 741 mmHg 59%
    21:00 +23°C° 0 mm 4 m/s 742 mmHg 61%
    22:00 +22°C° 0 mm 4 m/s 742 mmHg 64%
    23:00 +21°C° 0 mm 4 m/s 741 mmHg 67%

    25 Aprilie, Joi

    Timp Temperatura Precipitaţii Vânt Presiune Umiditate
    00:00 +21°C° 0 mm 3 m/s 741 mmHg 69%
    01:00 +20°C° 0 mm 3 m/s 741 mmHg 72%
    02:00 +19°C° 0 mm 3 m/s 741 mmHg 75%
    03:00 +19°C° 0 mm 3 m/s 740 mmHg 78%
    04:00 +18°C° 0 mm 3 m/s 740 mmHg 80%
    05:00 +19°C° 0 mm 3 m/s 740 mmHg 78%
    06:00 +19°C° 0 mm 3 m/s 741 mmHg 75%
    07:00 +19°C° 0 mm 3 m/s 741 mmHg 73%
    08:00 +21°C° 0 mm 3 m/s 741 mmHg 67%
    09:00 +22°C° 0 mm 4 m/s 741 mmHg 62%
    10:00 +25°C° 0 mm 4 m/s 741 mmHg 57%
    11:00 +26°C° 0 mm 5 m/s 740 mmHg 52%
    12:00 +28°C° 0 mm 5 m/s 740 mmHg 47%
    13:00 +29°C° 0 mm 6 m/s 739 mmHg 42%
    14:00 +29°C° 0 mm 6 m/s 739 mmHg 41%
    15:00 +30°C° 0 mm 6 m/s 739 mmHg 41%
    16:00 +30°C° 0 mm 7 m/s 738 mmHg 40%
    17:00 +28°C° 0 mm 6 m/s 739 mmHg 46%
    18:00 +27°C° 0 mm 5 m/s 739 mmHg 51%
    19:00 +25°C° 0 mm 4 m/s 739 mmHg 57%
    20:00 +23°C° 0.1 mm 4 m/s 739 mmHg 59%
    21:00 +22°C° 0.1 mm 4 m/s 739 mmHg 61%
    22:00 +21°C° 0.1 mm 4 m/s 739 mmHg 63%
    23:00 +21°C° 0.1 mm 3 m/s 739 mmHg 64%
    Arată mai mult